Location: Edemissen
(51.7689°N, 9.8634°E)
Time: 08:22:18
(UTC+00:00)

Cosmos 2219 - Pass Details

Date: 15 June 2024
Orbit: 834 x 858 km, 71.1° (Epoch: 22 July)

Event Time Altitude Azimuth Distance (km) Brightness Sun altitude
Exits shadow 00:27:43 19° 195° (SSW) 1,869 4.3 -13.5°
Maximum altitude 00:31:43 70° 116° (ESE) 890 3.3 -13.3°
Drops below altitude 10° 00:37:19 10° 34° (NE) 2,455 6.9 -13.1°
Sets 00:39:46 0° 32° (NNE) 3,393 8.1 -13.0°
